Preview of NWS' New Version of Forecast
This preview is not operational and should not be used for support decisions.

Regional Weather Roundup (RWR)

Issued by National Weather Service (NWS)

                            
000
ASUS46 KPQR 191210
RWROR 

OREGON REGIONAL WEATHER ROUNDUP
NATIONAL WEATHER SERVICE PORTLAND OR
500 AM PDT TUE MAR 19 2019

NOTE: "FAIR" INDICATES FEW OR NO CLOUDS BELOW 12,000 FEET WITH
NO SIGNIFICANT WEATHER AND/OR OBSTRUCTIONS TO VISIBILITY.

ORZ001>013-191300-
NORTHWEST OREGON

  
CITY           SKY/WX    TMP DP  RH WIND       PRES   REMARKS
ASTORIA        CLEAR     50  33  52 E8        29.96F                  
6HR MIN TEMP:  49; 6HR MAX TEMP:  57;                                

TILLAMOOK      CLEAR     57  32  38 NE22      29.94F                  
NEWPORT        CLEAR     55  34  44 E13G20    29.94S                  
PORTLAND       CLEAR     49  34  56 VRB3      30.04F                  
6HR MIN TEMP:  44; 6HR MAX TEMP:  55;                                

VANCOUVER WA   CLEAR     39  31  72 CALM      30.04F                  
6HR MIN TEMP:  37; 6HR MAX TEMP:  54;                                

SCAPPOOSE      CLEAR     42  33  70 NW3       30.04F                  
6HR MIN TEMP:  40; 6HR MAX TEMP:  49;                                

HILLSBORO      CLEAR     36  32  85 NW3       30.03F                  
6HR MIN TEMP:  36; 6HR MAX TEMP:  55;                                

AURORA         CLEAR     51  33  50 N9        30.00F                  
6HR MIN TEMP:  50; 6HR MAX TEMP:  58;                                

MCMINNVILLE    CLEAR     50  32  50 N9        30.00F                  
6HR MIN TEMP:  50; 6HR MAX TEMP:  53;                                

SALEM          CLEAR     48  31  51 NW5       29.98F                  
6HR MIN TEMP:  46; 6HR MAX TEMP:  55;                                

CORVALLIS      CLEAR     40  35  83 W5        29.98S                  
EUGENE         CLEAR     45  33  63 N7        29.97S                  
6HR MIN TEMP:  43; 6HR MAX TEMP:  52;                                

$$

ORZ021-028-191300-
SOUTHWEST OREGON

  
CITY           SKY/WX    TMP DP  RH WIND       PRES   REMARKS
NORTH BEND     PTCLDY    43  42  97 E5        29.90F                  
6HR MIN TEMP:  42; 6HR MAX TEMP:  48;                                

BROOKINGS      CLOUDY    50  42  74 E3        29.86S                  
ROSEBURG       CLEAR     43  39  86 CALM      29.93F                  
6HR MIN TEMP:  43; 6HR MAX TEMP:  57;                                

SEXTON SUMMIT  MOCLDY    47  28  47 E12G21    29.94F                  
6HR MIN TEMP:  46; 6HR MAX TEMP:  52;                                

GRANTS PASS    FAIR      39  36  87 CALM      29.96F                  
MEDFORD        MOCLDY    44  32  62 CALM      29.94F                  
6HR MIN TEMP:  42; 6HR MAX TEMP:  55;                                

$$

ORZ014>016-041-191300-
COLUMBIA GORGE

  
CITY           SKY/WX    TMP DP  RH WIND       PRES   REMARKS
TROUTDALE      CLEAR     50  34  54 E25G32    30.05S                  
6HR MIN TEMP:  50; 6HR MAX TEMP:  52;                                

HOOD RIVER     CLEAR     30  30 100 MISG      30.24S                  
THE DALLES     CLEAR     32  29  88 CALM      30.26S                  
6HR MIN TEMP:  32; 6HR MAX TEMP:  39;                                

$$

ORZ029>031-041-044-049-050-061>064-502-503-505>511-191300-
EASTERN OREGON

  
CITY           SKY/WX    TMP DP  RH WIND       PRES   REMARKS
MADRAS         CLEAR     27  23  86 SE5       30.22S                  
REDMOND        CLEAR     24  21  88 CALM      30.18F FOG              
6HR MIN TEMP:  24; 6HR MAX TEMP:  31;                                

BEND           CLEAR     27  25  93 SW3       30.18S                  
PRINEVILLE     CLEAR     25  25 100 CALM      30.18S                  
KLAMATH FALLS  PTCLDY    36  30  79 N6        30.05F                  
6HR MIN TEMP:  31; 6HR MAX TEMP:  47;                                

LAKEVIEW       CLEAR     32  25  75 NW9       30.10S                  
HERMISTON      CLEAR     27  25  92 CALM      30.24S FOG              
6HR MIN TEMP:  27; 6HR MAX TEMP:  36;                                

PENDLETON      CLEAR     31  28  89 S6        30.21S                  
6HR MIN TEMP:  29; 6HR MAX TEMP:  36;                                

JOHN DAY       CLEAR     34  26  71 SE6       30.20F                  
MEACHAM        CLEAR     19  14  81 CALM      30.21S                  
6HR MIN TEMP:  19; 6HR MAX TEMP:  27;                                

LA GRANDE      CLEAR     25  23  92 S3        30.27R                  
6HR MIN TEMP:  25; 6HR MAX TEMP:  36;                                

BAKER CITY     CLEAR     25  21  85 NE3       30.25R                  
6HR MIN TEMP:  24; 6HR MAX TEMP:  32;                                

BURNS          CLEAR     34  25  69 NE8       30.19S                  
6HR MIN TEMP:  26; 6HR MAX TEMP:  37;                                

ROME             N/A     29  23  78 NE6       30.18S                  
6HR MIN TEMP:  29; 6HR MAX TEMP:  40;                                

ONTARIO        CLEAR     28  23  81 W3        30.27S                  
6HR MIN TEMP:  28; 6HR MAX TEMP:  40;                                

$$